Simultaneous Nadir Overpasses (SNOs) Predictions

Prediction of SNOs between METOP-B and TERRA Satellite Orbit:

Table of predicted SNOs for the next 14.0 days since TLE Epoch: 1/7/2023
Index Date (METOP-B) Time (METOP-B) Lat,Lon (METOP-B) SZA (METOP-B ) Date (TERRA) Time (TERRA) Lat,Lon (TERRA) SZA (TERRA ) Distance(km) Time Diff (sec)
1 01/09/2023 11:36:23 -81.00,-137.56 75.42 01/09/2023 11:36:23 -80.99,-137.71 75.44 2.72 0
2 01/12/2023 02:57:24 80.95, 171.13 104.03 01/12/2023 02:58:37 80.95, 171.21 104.07 1.49 73
3 01/12/2023 03:48:02 -80.99, -20.50 75.85 01/12/2023 03:47:58 -81.00, -20.57 75.86 1.25 4
4 01/14/2023 19:09:02 80.94, -71.90 103.54 01/14/2023 19:10:11 80.94, -71.83 103.57 1.11 69
5 01/14/2023 19:59:40 -80.99, 96.49 76.34 01/14/2023 19:59:32 -80.99, 96.39 76.35 1.77 8
6 01/17/2023 11:20:40 80.95, 45.37 103.04 01/17/2023 11:21:45 80.95, 45.29 103.06 1.47 65
7 01/17/2023 12:11:19 -80.98,-146.58 76.88 01/17/2023 12:11:06 -80.99,-146.46 76.87 2.17 13
8 01/20/2023 03:32:19 80.94, 162.22 102.45 01/20/2023 03:33:19 80.94, 162.25 102.47 0.69 60



Historial Predications of SNOs between METOP-B and TERRA
